Temperature
12 12 12 11 11 11 11 11 11 11 11 11 11 11 11 11 11 11 11 11 11 11 11 11 11 11 11 11 11 11 11 11 11 11 11 11 11 11 11 11 11 11 11
12 12 12 11 11 11 11 11 11 11 11 11 11 11 11 11 11 11 11 11 11 11 11 11 11 11 11 11 11 11 11 11 11 11 10 10 10 10 11 11 11 11 11
11 11 11 11 10 10 10 10 10 10 10 10 10 10 10 10 10 11 11 11 11 11 11 11 11 11 11 11 11 11 11 11 10 10 11 10 10 10 10 10 10 11 11
11 11 11 10 10 10 10 10 10 10 10 10 10 10 10 10 10 10 11 11 10 10 10 10 10 10 10 10 10 10 10 10 10 10 10 11 10 10 9 10 10 10 10
10 10 10 10 10 9 9 9 9 9 10 10 10 10 10 10 10 10 10 10 10 10 10 10 10 10 10 10 10 10 10 10 10 10 10 10 10 10 10 9 9 10 10
9 9 9 9 9 9 9 9 9 9 9 9 10 9 9 9 9 10 10 9 9 10 10 10 10 10 10 10 10 10 10 9 9 9 9 10 10 10 10 10 9 9 9
8 8 8 8 8 8 8 8 8 8 9 9 9 9 9 9 9 9 9 9 9 9 9 9 9 9 9 9 9 9 9 9 9 9 9 9 9 9 10 10 9 9 9
7 7 7 7 7 7 7 7 7 8 8 8 8 8 8 8 8 9 9 9 9 9 9 9 9 9 8 8 8 8 8 8 8 8 8 8 9 9 9 9 9 8 8
6 6 6 6 6 6 6 7 7 7 7 8 8 8 8 8 8 8 8 8 8 8 8 8 8 8 8 8 8 8 8 8 8 8 8 8 8 8 8 8 8 8 8
5 5 5 5 5 5 5 6 6 7 7 7 7 7 7 7 7 7 8 8 8 8 8 8 8 8 8 8 7 8 7 7 7 7 7 7 8 8 8 8 8 8 8
4 4 4 4 4 4 5 5 5 6 6 6 6 7 7 7 7 7 7 7 7 7 7 7 7 7 7 7 7 7 7 7 7 7 7 7 7 7 7 7 7 7 7
3 3 3 3 3 3 4 4 5 5 5 6 6 6 6 6 6 6 6 7 7 7 7 7 7 7 7 7 7 7 6 7 7 7 6 6 6 6 6 6 6 6 6
2 2 2 2 2 2 3 3 4 4 5 5 5 5 5 5 5 5 6 6 6 6 6 6 6 6 6 6 6 6 6 6 6 6 6 6 6 6 6 6 6 6 6
1 1 1 1 2 2 2 2 3 3 4 4 4 5 5 5 5 5 5 5 6 6 6 6 6 6 6 6 6 6 6 6 6 6 6 5 5 5 5 5 5 5 5
-0 0 0 0 1 1 1 2 2 2 3 3 4 4 4 4 4 5 5 5 5 5 5 5 5 5 5 5 5 5 5 5 5 5 5 5 5 5 5 5 5 5 4
-1 -1 -0 -0 -0 0 1 1 1 2 2 3 3 3 3 4 4 4 4 4 4 4 5 5 5 5 5 5 5 5 5 5 5 5 5 4 4 4 4 4 4 4 4
-2 -1 -1 -1 -1 -0 0 1 1 1 2 2 2 2 3 3 3 3 3 4 4 4 4 4 4 4 4 4 4 4 4 4 4 4 4 4 4 4 4 3 3 3 3
-2 -2 -2 -1 -1 -0 -0 0 1 1 1 1 2 2 2 2 2 3 3 3 3 3 3 3 3 3 3 3 3 3 4 4 3 4 3 3 3 3 3 3 3 3 3
-3 -3 -2 -2 -1 -1 -0 -0 0 0 1 1 1 1 1 2 2 2 2 2 2 2 2 2 3 3 3 3 3 3 3 3 3 3 3 3 2 2 2 2 2 2 2
-3 -3 -2 -2 -1 -1 -1 -1 -0 -0 -0 0 0 1 1 1 1 1 2 2 2 2 2 2 2 2 2 2 2 2 2 2 2 2 2 2 2 2 2 2 2 2 1
-3 -3 -3 -2 -2 -2 -1 -1 -1 -1 -1 -1 -0 -0 0 0 1 1 1 1 1 1 1 1 1 1 1 2 2 2 2 2 2 1 1 1 1 1 1 1 1 1 1
-4 -4 -3 -3 -2 -2 -2 -1 -1 -1 -1 -1 -1 -1 -1 -0 -0 0 0 0 0 0 0 0 0 0 1 1 1 1 1 1 1 1 1 1 1 0 0 0 0 0 -0
-5 -4 -4 -3 -3 -3 -2 -2 -2 -2 -2 -2 -2 -1 -1 -1 -1 -0 -0 -0 -0 -0 -0 -0 -0 -0 -0 0 0 0 0 0 0 0 0 -0 -0 -0 -0 -0 -1 -1 -1
-5 -5 -4 -4 -4 -3 -3 -3 -3 -2 -2 -2 -2 -2 -2 -2 -1 -1 -1 -1 -1 -1 -1 -1 -1 -1 -0 -0 -0 -0 -0 -0 -0 -1 -1 -1 -1 -1 -1 -1 -1 -1 -1
-6 -5 -5 -5 -5 -4 -4 -4 -3 -3 -3 -3 -3 -3 -2 -2 -2 -2 -2 -2 -2 -1 -1 -1 -1 -1 -1 -1 -1 -1 -1 -1 -1 -1 -1 -1 -1 -1 -1 -2 -2 -2 -2
-7 -6 -6 -6 -5 -5 -5 -4 -4 -4 -3 -3 -3 -3 -3 -3 -3 -3 -3 -3 -3 -2 -2 -2 -2 -2 -2 -2 -2 -2 -1 -1 -2 -2 -2 -2 -2 -2 -2 -2 -2 -2 -2
Wind_Speed
6 7 7 7 7 6 6 7 7 6 6 5 4 4 3 3 3 3 5 5 5 5 5 3 3 4 3 4 4 4 4 3 3 3 2 1 1 1 1 2 3 4 5
5 6 7 7 7 7 7 7 7 7 6 5 5 4 4 3 3 3 4 5 5 5 4 4 3 3 3 4 4 4 3 2 3 3 3 2 0 0 1 1 2 2 3
5 6 6 7 7 7 7 7 7 7 7 7 5 5 4 3 3 3 3 3 5 5 4 4 4 3 4 4 4 4 4 4 2 2 2 3 3 2 0 1 1 2 2
4 5 5 5 6 6 6 6 7 7 7 7 7 7 6 5 4 4 3 3 5 5 5 4 4 3 3 4 4 3 3 4 4 2 1 1 2 3 2 0 1 1 2
3 4 4 4 5 4 5 5 6 6 6 7 7 7 5 4 3 4 5 4 3 4 5 5 4 4 3 3 3 3 3 3 3 2 1 1 0 1 2 2 2 1 1
3 3 4 4 4 4 4 4 5 5 6 7 7 6 6 5 6 5 5 4 3 3 4 4 4 4 3 4 3 3 4 3 3 2 2 2 2 2 2 2 2 2 1
4 4 4 4 4 4 3 4 4 5 5 6 6 6 6 6 7 6 6 5 4 3 4 4 4 3 4 4 4 3 3 3 3 3 2 1 1 1 1 2 2 1 1
5 4 4 4 4 3 3 3 4 3 4 5 5 5 5 5 4 5 5 5 4 4 5 4 4 4 5 4 4 3 3 3 3 2 2 1 1 1 1 2 2 1 1
5 5 4 3 3 3 2 2 3 3 3 3 4 4 4 5 5 5 5 4 4 4 5 5 5 4 4 4 4 3 3 3 3 2 2 1 1 1 1 2 2 3 2
6 5 4 3 3 3 2 2 2 2 2 2 3 3 4 4 4 5 5 5 5 4 6 6 6 5 4 4 4 3 3 3 3 3 3 2 1 1 1 1 1 1 2
5 5 4 4 3 3 3 2 2 2 2 2 2 2 3 3 4 4 5 5 4 5 6 6 6 6 5 5 4 4 4 4 3 3 3 2 2 2 1 1 1 1 1
5 5 5 4 4 4 3 3 2 2 1 1 1 2 3 4 4 4 4 5 5 5 5 6 5 5 5 5 6 5 5 5 4 4 3 3 2 2 1 1 1 1 1
6 6 5 5 4 4 3 3 2 2 1 1 1 2 3 4 4 4 4 5 5 5 5 5 6 5 5 5 5 5 5 4 4 4 4 3 3 2 2 2 2 1 1
6 6 5 5 5 4 3 2 2 2 1 1 1 1 2 3 3 4 4 5 5 5 5 5 5 5 5 5 5 5 5 4 3 3 3 3 4 4 3 3 2 2 1
7 7 6 5 5 4 4 3 2 2 1 1 1 1 1 3 3 4 4 5 5 5 5 5 5 4 5 5 5 5 5 5 4 3 3 3 3 4 3 3 3 3 2
7 8 7 7 6 5 4 4 3 2 2 1 2 1 2 3 3 4 4 5 5 5 5 5 6 4 4 6 7 6 5 5 5 4 3 3 3 3 4 4 3 4 4
8 7 7 7 6 5 4 3 2 1 1 1 2 2 2 3 3 3 4 5 5 5 5 5 5 5 5 7 7 7 5 5 5 4 4 3 3 3 3 3 3 2 2
9 8 7 6 6 5 4 3 2 1 1 1 2 2 3 3 3 3 4 4 4 4 5 5 5 5 5 8 8 7 5 4 4 4 4 4 3 3 4 3 3 2 1
8 8 7 6 6 5 3 2 1 1 1 1 2 2 3 3 3 4 3 4 4 4 4 4 5 5 5 7 8 7 5 4 4 3 4 4 4 5 5 4 3 2 1
8 8 7 6 5 4 3 1 1 1 1 1 1 1 3 3 3 3 3 4 4 4 4 4 4 5 5 7 8 7 5 5 4 3 3 4 4 5 5 4 4 2 1
8 8 7 6 4 4 3 1 1 1 1 1 2 2 2 3 3 3 3 4 5 5 4 4 3 3 4 5 7 7 5 5 4 3 3 3 5 5 5 3 3 3 2
8 8 6 5 4 4 3 2 2 2 1 2 3 2 2 2 2 4 4 4 5 5 5 4 3 2 2 3 5 6 6 5 5 4 3 3 4 5 4 3 3 3 2
8 7 6 6 5 4 3 2 2 2 2 3 3 3 3 2 2 3 4 4 4 4 4 4 3 2 2 3 4 5 5 4 3 3 4 4 4 3 3 3 3 3 2
7 7 6 6 6 5 5 3 3 2 3 3 2 2 3 3 2 2 2 3 3 4 4 3 3 3 2 2 2 2 3 4 3 2 3 3 3 2 2 2 2 2 2
7 7 6 6 6 6 5 5 4 3 3 2 2 2 2 3 2 2 2 2 1 2 3 3 3 4 3 3 4 3 2 2 3 2 2 1 2 2 2 2 2 2 2
7 7 7 6 6 6 5 5 4 3 2 2 2 1 2 2 2 3 3 5 3 4 3 2 2 1 2 3 4 3 4 4 5 3 2 3 3 3 3 3 2 2 2
Wind_Direction
180 170 160 155 152 157 161 161 160 159 154 150 152 150 153 142 126 109 126 140 150 154 144 139 146 146 148 151 146 141 142 143 127 112 103 64 83 101 117 124 123 129 143
177 169 162 158 158 164 167 162 162 162 159 156 155 155 153 147 143 120 126 145 150 152 151 144 149 147 148 150 153 143 146 160 151 141 139 149 8 333 171 129 140 131 124
181 169 160 161 159 163 169 172 168 163 162 154 146 143 131 128 136 151 152 147 151 149 148 150 146 148 150 159 167 164 161 172 191 173 155 158 188 177 167 170 153 139 113
177 161 156 153 158 168 166 167 166 163 162 157 156 157 157 163 175 169 161 154 154 154 154 155 150 148 150 156 172 168 167 169 184 210 248 187 144 151 159 226 190 166 154
139 138 138 144 143 146 153 161 160 161 161 160 158 160 165 171 156 154 155 163 153 151 157 162 154 154 154 159 166 164 160 169 175 181 192 196 44 115 156 180 192 185 194
128 117 109 105 107 117 130 147 160 163 165 165 163 167 172 168 157 162 166 165 158 159 158 164 157 158 159 162 163 167 166 174 173 171 172 163 166 183 161 176 178 185 213
112 110 106 105 104 107 128 149 158 167 166 167 170 175 178 175 172 170 171 167 165 169 181 171 164 159 159 157 155 165 172 176 173 176 185 179 186 156 143 144 164 168 178
88 91 95 98 101 108 120 148 156 161 166 169 174 176 178 177 175 174 170 172 175 176 176 170 165 159 156 156 154 165 171 164 167 173 175 163 151 122 142 150 156 158 193
78 78 78 83 93 94 87 126 150 152 162 166 169 179 183 177 172 169 167 173 174 169 167 162 164 158 157 162 162 166 169 162 163 164 159 160 131 116 126 137 156 162 188
54 57 58 61 69 92 81 88 114 138 141 151 167 175 177 174 167 163 168 168 168 163 162 166 163 162 163 163 161 157 160 153 154 155 148 157 132 120 117 139 151 148 174
51 49 36 40 48 60 73 72 85 94 105 122 133 145 155 157 156 163 168 166 164 163 166 165 163 166 170 166 161 160 160 157 156 153 151 158 146 135 136 130 122 110 123
43 44 33 37 49 50 48 56 65 79 96 109 132 148 149 153 157 163 167 165 162 162 163 159 157 161 165 164 165 165 165 162 164 163 151 155 144 137 143 128 126 139 149
43 39 31 31 36 38 33 28 41 46 64 89 111 150 160 164 163 165 165 161 157 157 156 157 158 160 158 156 161 159 156 154 159 162 162 165 152 155 156 134 141 158 128
35 33 26 22 20 21 21 9 21 33 45 100 111 153 173 163 159 159 158 157 155 155 153 153 154 154 152 153 155 154 150 146 147 150 158 166 164 166 163 156 150 136 125
21 19 13 7 4 2 3 4 8 29 41 94 111 134 143 138 144 146 147 149 147 150 147 145 144 145 151 156 152 149 149 149 146 140 139 144 153 161 164 161 158 155 164
9 4 0 355 352 351 353 356 356 15 42 77 89 94 116 121 131 139 139 142 144 145 144 147 146 147 159 150 152 153 149 150 150 149 144 141 142 145 144 145 158 175 182
354 351 346 339 335 333 335 332 339 1 44 75 89 94 113 127 132 140 140 141 145 144 144 144 142 147 151 150 149 147 145 145 148 154 153 149 143 141 132 128 132 141 190
342 339 333 331 330 327 331 336 354 28 64 75 92 102 108 115 121 125 135 138 135 138 141 142 143 144 152 152 149 147 138 134 142 147 148 146 143 149 142 135 121 107 66
332 330 326 322 323 323 323 342 28 35 61 75 86 108 118 119 121 125 129 131 129 127 127 134 144 148 150 154 155 152 141 136 133 135 140 146 146 154 148 135 130 123 98
334 332 328 330 331 330 337 33 50 41 43 82 92 96 120 127 128 127 125 124 127 126 127 125 136 145 148 158 163 165 155 145 142 134 139 155 161 162 157 146 147 158 186
333 334 333 335 334 342 358 22 40 18 6 63 82 83 99 121 128 124 121 124 126 122 121 122 119 130 148 159 166 170 163 156 153 158 162 166 167 171 171 170 167 187 191
340 340 340 339 344 351 360 9 10 358 41 75 79 87 91 104 116 121 121 123 129 129 130 127 121 116 133 144 152 160 167 163 159 166 170 167 168 172 178 190 192 195 198
341 344 345 348 354 358 5 11 352 12 67 86 84 89 89 88 108 125 129 131 132 139 144 142 136 131 119 126 138 148 149 147 155 160 162 165 169 168 175 190 201 200 193
344 346 353 360 356 357 6 10 12 39 73 89 94 100 105 97 90 109 123 134 143 144 146 145 145 143 140 142 149 154 149 148 145 141 148 154 169 175 183 200 213 201 198
345 351 359 0 354 357 4 9 20 42 63 77 86 94 104 110 100 85 80 110 115 151 155 160 159 160 171 187 177 167 165 168 175 160 150 160 175 183 198 200 197 198 206
348 353 356 356 353 359 2 2 11 33 65 80 87 95 107 109 111 107 76 55 81 90 106 130 152 167 181 178 182 185 187 182 175 172 189 201 201 202 205 206 212 214 217
Height
1466 1469 1471 1473 1476 1479 1481 1484 1487 1490 1493 1496 1498 1501 1504 1507 1510 1512 1514 1517 1519 1522 1524 1527 1529 1531 1534 1536 1539 1541 1543 1546 1548 1550 1552 1553 1555 1556 1558 1559 1560 1561 1562
1463 1465 1468 1470 1472 1475 1478 1481 1484 1487 1490 1493 1496 1499 1502 1505 1507 1510 1512 1514 1517 1519 1521 1524 1526 1529 1531 1533 1536 1538 1541 1543 1545 1547 1549 1551 1554 1554 1555 1556 1557 1558 1559
1459 1462 1464 1467 1469 1472 1475 1478 1481 1484 1487 1490 1494 1497 1499 1502 1504 1506 1509 1511 1514 1516 1519 1521 1524 1526 1528 1530 1533 1535 1538 1540 1543 1545 1547 1548 1549 1551 1553 1553 1555 1556 1556
1456 1459 1461 1463 1466 1469 1472 1475 1478 1481 1484 1487 1490 1493 1495 1497 1500 1503 1506 1509 1511 1513 1516 1518 1520 1523 1525 1527 1530 1532 1535 1537 1539 1542 1544 1546 1546 1548 1549 1551 1552 1553 1554
1454 1456 1458 1461 1463 1466 1469 1472 1475 1478 1481 1484 1487 1490 1492 1495 1498 1501 1503 1506 1508 1510 1512 1515 1517 1519 1522 1524 1527 1529 1531 1534 1536 1538 1540 1542 1544 1545 1546 1547 1549 1550 1551
1452 1455 1457 1459 1461 1464 1466 1469 1472 1475 1478 1481 1483 1486 1489 1492 1495 1497 1500 1502 1504 1507 1509 1511 1513 1516 1518 1521 1523 1526 1528 1530 1532 1534 1536 1538 1540 1541 1542 1543 1545 1546 1548
1450 1453 1455 1457 1459 1461 1464 1466 1469 1471 1474 1477 1480 1483 1486 1489 1491 1493 1496 1499 1501 1503 1505 1508 1510 1512 1515 1517 1520 1522 1524 1526 1529 1531 1533 1535 1536 1538 1540 1541 1541 1543 1544
1450 1452 1454 1455 1457 1459 1461 1464 1466 1468 1471 1474 1477 1480 1483 1485 1487 1490 1493 1495 1497 1500 1503 1505 1507 1509 1512 1514 1516 1519 1521 1523 1525 1527 1529 1531 1533 1535 1536 1537 1539 1539 1541
1450 1452 1453 1455 1456 1458 1459 1461 1464 1466 1468 1471 1473 1476 1479 1481 1484 1486 1489 1492 1494 1497 1499 1502 1504 1506 1508 1511 1513 1515 1517 1519 1522 1524 1526 1528 1529 1531 1533 1534 1536 1537 1537
1451 1452 1453 1455 1455 1456 1458 1460 1462 1463 1466 1468 1470 1472 1475 1478 1480 1483 1485 1488 1491 1494 1496 1498 1501 1503 1505 1508 1510 1512 1514 1516 1518 1520 1522 1524 1526 1527 1529 1531 1532 1534 1535
1452 1452 1453 1454 1455 1455 1456 1458 1460 1461 1463 1465 1467 1469 1472 1474 1477 1480 1482 1485 1487 1490 1493 1495 1497 1500 1502 1504 1507 1509 1511 1513 1515 1517 1518 1520 1522 1524 1525 1527 1528 1529 1531
1453 1453 1453 1454 1454 1455 1455 1456 1458 1459 1461 1462 1464 1467 1469 1471 1474 1476 1479 1481 1484 1487 1489 1492 1494 1496 1499 1501 1503 1505 1507 1509 1511 1513 1515 1517 1519 1520 1522 1523 1524 1526 1527
1453 1453 1453 1454 1454 1454 1454 1455 1456 1457 1458 1460 1461 1463 1466 1468 1470 1473 1475 1478 1481 1483 1486 1488 1491 1493 1495 1498 1500 1502 1504 1506 1508 1510 1512 1513 1515 1517 1518 1519 1521 1522 1523
1454 1454 1454 1454 1454 1454 1454 1454 1454 1455 1456 1457 1459 1461 1463 1465 1467 1469 1472 1474 1477 1480 1482 1485 1487 1490 1492 1495 1497 1499 1501 1503 1505 1507 1509 1510 1512 1513 1514 1516 1517 1518 1520
1455 1455 1454 1454 1453 1453 1453 1453 1453 1454 1454 1455 1456 1458 1460 1462 1464 1466 1468 1471 1474 1477 1479 1481 1484 1486 1489 1491 1493 1496 1498 1500 1501 1503 1505 1507 1509 1510 1511 1512 1513 1515 1516
1455 1455 1454 1453 1452 1452 1452 1451 1451 1452 1453 1453 1454 1455 1457 1459 1461 1463 1466 1468 1471 1473 1476 1478 1481 1483 1485 1488 1490 1492 1495 1496 1498 1500 1502 1503 1504 1506 1507 1509 1510 1512 1513
1456 1455 1454 1453 1452 1451 1451 1450 1450 1450 1451 1451 1452 1453 1455 1456 1458 1461 1463 1465 1468 1470 1472 1475 1477 1480 1482 1484 1487 1489 1491 1493 1495 1497 1498 1500 1501 1503 1504 1506 1507 1508 1510
1455 1454 1453 1451 1450 1449 1449 1448 1448 1449 1449 1449 1450 1451 1452 1454 1456 1458 1460 1462 1465 1467 1469 1471 1474 1476 1479 1481 1483 1486 1488 1490 1492 1494 1495 1497 1499 1500 1501 1503 1504 1505 1506
1455 1453 1451 1449 1448 1447 1446 1446 1446 1446 1447 1447 1448 1449 1450 1452 1453 1455 1457 1459 1462 1464 1466 1469 1471 1473 1476 1478 1481 1483 1485 1487 1489 1491 1492 1494 1496 1498 1499 1500 1500 1501 1502
1453 1450 1449 1447 1445 1444 1444 1444 1444 1444 1445 1445 1446 1447 1448 1450 1451 1453 1455 1457 1459 1461 1464 1466 1469 1471 1473 1476 1478 1481 1482 1484 1486 1488 1490 1492 1493 1495 1496 1498 1498 1498 1499
1450 1448 1446 1445 1444 1443 1442 1441 1442 1442 1443 1444 1444 1445 1446 1448 1449 1451 1453 1455 1457 1459 1461 1464 1466 1469 1471 1473 1476 1478 1480 1481 1483 1485 1487 1489 1491 1492 1494 1495 1495 1496 1497
1448 1447 1444 1443 1442 1441 1440 1439 1439 1440 1441 1441 1442 1443 1444 1446 1447 1449 1450 1453 1455 1457 1459 1461 1463 1466 1468 1471 1473 1475 1477 1479 1480 1482 1484 1485 1487 1489 1490 1491 1492 1493 1494
1447 1445 1443 1441 1440 1439 1438 1437 1438 1438 1439 1439 1440 1441 1443 1444 1445 1447 1448 1450 1453 1454 1456 1459 1460 1463 1466 1468 1470 1472 1474 1476 1478 1479 1481 1482 1484 1485 1487 1488 1489 1489 1490
1446 1444 1442 1440 1438 1438 1437 1436 1436 1437 1437 1437 1438 1440 1441 1442 1443 1445 1447 1448 1450 1452 1454 1456 1458 1461 1463 1465 1467 1469 1471 1473 1475 1476 1477 1479 1480 1482 1483 1484 1485 1486 1486
1446 1444 1441 1439 1438 1437 1436 1436 1435 1435 1435 1436 1437 1438 1439 1440 1442 1443 1445 1447 1449 1451 1452 1454 1457 1458 1460 1462 1465 1466 1468 1470 1471 1472 1473 1475 1476 1477 1478 1479 1480 1481 1482
1446 1443 1441 1439 1438 1437 1435 1435 1435 1435 1435 1435 1436 1437 1438 1439 1440 1441 1443 1445 1448 1450 1452 1453 1455 1457 1459 1460 1462 1464 1465 1467 1468 1470 1470 1470 1471 1472 1474 1475 1476 1477 1478